Location: ??????
(55.8274°N, 37.9338°E)
Time: 05:38:22
(UTC+00:00)

Meteor 2-4 Rocket - Visible Passes

Search period start: 13 July 2024 00:00
Search period end: 23 July 2024 00:00
Orbit: 798 x 908 km, 81.2° (Epoch: 12 July)

Date Brightness Start Highest point End Pass type
(mag) Time Alt. Az. Time Alt. Az. Time Alt. Az.
13 Jul 3.7 00:03:05 10° NNW 00:08:29 88° W 00:13:53 10° SSE visible
13 Jul 6.0 22:09:20 10° N 22:13:20 21° NE 22:17:19 10° ESE visible
13 Jul 3.7 23:51:44 10° NNW 23:57:08 88° ENE 00:02:34 10° SSE visible
14 Jul 6.0 21:58:02 10° N 22:01:56 20° NE 22:05:49 10° E visible
14 Jul 3.7 23:40:24 10° NNW 23:45:47 84° ENE 23:51:14 10° SSE visible
15 Jul 6.0 21:46:45 10° N 21:50:32 19° NE 21:54:19 10° E visible
15 Jul 3.8 23:29:03 10° NNW 23:34:27 79° ENE 23:39:53 10° SSE visible
16 Jul 6.0 21:35:28 10° N 21:39:07 18° NE 21:42:48 10° E visible
16 Jul 3.8 23:17:42 10° NNW 23:23:06 75° ENE 23:28:32 10° SSE visible
17 Jul 6.1 21:24:11 10° N 21:27:43 17° NE 21:31:17 10° E visible
17 Jul 3.9 23:06:21 10° NNW 23:11:45 72° ENE 23:17:11 10° SSE visible
18 Jul 6.1 21:12:54 10° N 21:16:19 17° NE 21:19:45 10° E visible
18 Jul 3.9 22:55:01 10° N 23:00:24 68° ENE 23:05:50 10° SSE visible
19 Jul 6.1 21:01:37 10° N 21:04:55 16° NE 21:08:12 10° E visible
19 Jul 4.0 22:43:40 10° N 22:49:02 64° ENE 22:54:29 10° SSE visible
20 Jul 6.1 20:50:22 10° NNE 20:53:30 15° NE 20:56:40 10° E visible
20 Jul 4.1 22:32:19 10° N 22:37:41 61° ENE 22:43:07 10° SSE visible
21 Jul 4.7 00:15:50 10° NNW 00:20:20 28° W 00:24:54 10° SW visible
21 Jul 6.1 20:39:05 10° NNE 20:42:05 15° NE 20:45:06 10° E visible
21 Jul 4.2 22:21:00 10° N 22:26:20 58° ENE 22:31:45 10° SSE visible
22 Jul 4.7 00:04:25 10° NNW 00:09:02 29° W 00:13:42 10° SSW visible
22 Jul 6.1 20:27:50 10° NNE 20:30:41 14° NE 20:33:32 10° ENE visible
22 Jul 4.2 22:09:39 10° N 22:14:58 55° ENE 22:20:22 10° SSE visible
